Powrót do katalogu

CZ-6A DEB

AktywnyPO
NORAD 60801·DEBRIS·🇨🇳 China

Wystrzelony Aug 6, 2024 z Taiyuan Satellite Launch Center

Loading…

Następne Przeloty (najbliższe 24 godziny)

TLE

ŚwieżeSource: Space-Track

Epoka: Sep 14, 2026, 09:39 UTC

1 60801U 24140GC  26257.40213377  .00002145  00000-0  24740-3 0  9997
2 60801  88.9194 248.9958 0159707 223.3816 135.4747 14.76436459112346

Śledź CZ-6A DEB w czasie rzeczywistym z AllMySat

Download on the App Store